Location: Wiler
(46.4041°N, 7.7840°E)
Time: 12:46:47
(UTC+00:00)

CZ-4C R/B - Pass Details

Date: 09 April 2020
Orbit: 637 x 1365 km, 63.4° (Epoch: 02 June)

Event Time Altitude Azimuth Distance (km) Brightness Sun altitude
Rises 19:01:17 0° 315° (NW) 3,581 6.9 -9.4°
Reaches altitude 10° 19:04:17 10° 330° (NNW) 2,763 5.7 -9.9°
Maximum altitude 19:09:25 23° 21° (NNE) 2,155 4.3 -10.7°
Drops below altitude 10° 19:15:12 10° 71° (ENE) 3,163 4.7 -11.6°
Enters shadow 19:16:39 - 78° (ENE) 3,561 5.0 -11.8°
